BREEZE-M R/B, 41311

Orbit data source: Space-Track

BREEZE-M R/B, 41311 is space debris in HEO originally from a launch on Fri, 29 Jan 2016 UTC launched from the Tyuratam Missile And Space Complex (TTMTR). Debris objects in space refer to the collection of defunct objects orbiting the Earth. Examples of debris include non-operational satellites, rocket bodies, and fragments generated from explosions, collisions, or faulty payload assembly.

Loading next visibility...
Identifier
41311, 2016-005B
Orbit
HEO
Country
Flag of CISCIS
Related business
Manufacturer
Khrunichev
Mission
Spacecraft
Bus & Motor
BRIZ, Unknown motor
Mass
~1,600 kg wet, 1,600 kg dry
Launch date (UTC)
2016-01-29 (10 years ago)
Launch vehicle
Unknown
Launch site
Tyuratam Missile And Space Complex (TTMTR)
Object type
Payload
Rocket body
Debris
Shape & HBR
Cyl, 2.0 m
Radar Cross Section
14.451 m², Large (>1 m²)

Expand to show TLE details & history
Last TLE update: 1 week ago

TLE from 1 week ago
0 BREEZE-M R/B
1 41311U 16005B   25253.89494657 -.00000090  00000-0  00000-0 0  9991
2 41311  12.0238 153.3768 5933366 227.9273  63.7154  2.17159600 76277
Epoch: 2025-09-10T21:28Z
TLE epoch observation values (Epoch: 2025-09-10T21:28:43.383Z)
Latitude
0.00009°
Longitude
-158.84068°
Altitude
20,776.253 km
Speed
3.679 km/s
True Right ascension
10h 14m 01s
True Declination
0° 00' 00"
Sunlit
Object was in daylight at epoch
Visualization orbit readout
Latitude
Unknown
Longitude
Unknown
Altitude
Unknown
Speed
Unknown
Apparent Right ascension
Unknown
Apparent Declination
Unknown
Sunlit
N/A
Visualization observer readout
Local Sidereal Time
03:30:22
Azimuth
Unknown
Elevation
Unknown
Doppler factor
Unknown
Orbital elements
Apogee altitude
33,761.889 km
Perigee altitude
3,866.704 km
Semi-major axis
25,192.434 km
Eccentricity
0.59334
Inclination
12.0238°
RAAN
153.3768°
Arg. of periapsis
227.9273°
True anomaly
132.15328°
Mean anomaly
63.7154°
Eccentric anomaly
97.42595°
Mean motion
0.5428 °/min
Orbital period
663.23 mins
BSTAR
0
Loading maneuver chart data...
Computing Atmospheric mass density...
Loading historical data...
Loading historical data...
Loading historical data...
Loading historical data...
Loading historical data...
Loading historical data...
Loading historical data...
Other satellites on launch #5 in the year 2016 (2016-01-29 UTC)

Documentation

Showing up to 5 results
|